Location: Baix
(44.7118°N, 4.7648°E)
Time: 02:15:01
(UTC+00:00)

Vanguard 1 Rocket - Pass Details

Date: 03 October 2022
Orbit: 650 x 4225 km, 34.3° (Epoch: 06 December)

Event Time Altitude Azimuth Distance (km) Brightness Sun altitude
Rises 21:05:09 0° 255° (WSW) 7,703 12.5 -38.6°
Reaches altitude 10° 21:11:14 10° 252° (WSW) 6,192 11.9 -39.4°
Enters shadow 21:24:36 45° 216° (SW) 2,818 9.6 -41.1°
